Location: B�di�
(14.6834°N, 3.1047°W)
Time: 03:27:35
(UTC+00:00)

H-2A R/B - Pass Details

Date: 24 January 2020
Orbit: 286 x 29123 km, 28.3° (Epoch: 17 February)

Event Time Altitude Azimuth Distance (km) Brightness Sun altitude
Rises 19:49:51 0° 298° (WNW) 2,547 5.4 -24.6°
Reaches altitude 10° 19:51:05 10° 299° (WNW) 1,972 4.7 -24.9°
Maximum altitude 19:54:58 82° 27° (NNE) 1,196 2.8 -25.8°
Enters shadow 20:05:51 22° 114° (ESE) 5,579 5.9 -28.3°
Exits shadow 20:07:34 19° 114° (ESE) 6,272 6.2 -28.7°
Drops below altitude 10° 20:17:59 10° 116° (ESE) 10,110 7.3 -31.2°
Sets 20:44:44 0° 118° (ESE) 17,630 8.6 -37.5°
